| time (UTC) | temp F | wind direction | speed MPH | gust MPH | rain 1hr in | rain 24hr in | rain mn in | humidity % | barometer mb |
| 20260504050503 | 67 | 160 | 5.0 | 11.0 | 0.00 | 0.00 | 0.00 | 71 | 1017.9 |
| 20260504050025 | 67 | 161 | 5.0 | 10.0 | 0.00 | 0.00 | 0.00 | 70 | 1017.9 |
| 20260504045503 | 67 | 159 | 5.0 | 10.0 | 0.00 | 0.00 | 0.00 | 70 | 1018.0 |
| 20260504045004 | 67 | 156 | 5.0 | 10.0 | 0.00 | 0.00 | 0.00 | 70 | 1018.0 |
| 20260504044504 | 67 | 158 | 5.0 | 14.0 | 0.00 | 0.00 | 0.00 | 69 | 1018.1 |
| 20260504044004 | 68 | 160 | 6.0 | 14.0 | 0.00 | 0.00 | 0.00 | 69 | 1018.0 |
| 20260504043504 | 67 | 154 | 6.0 | 10.0 | 0.00 | 0.00 | 0.00 | 69 | 1018.1 |
| 20260504043003 | 68 | 151 | 5.0 | 10.0 | 0.00 | 0.00 | 0.00 | 68 | 1017.9 |
| 20260504042504 | 68 | 157 | 5.0 | 10.0 | 0.00 | 0.00 | 0.00 | 68 | 1018.1 |
| 20260504042005 | 68 | 158 | 6.0 | 12.0 | 0.00 | 0.00 | 0.00 | 67 | 1018.3 |
| 20260504041504 | 68 | 156 | 6.0 | 12.0 | 0.00 | 0.00 | 0.00 | 67 | 1018.3 |
| 20260504041004 | 68 | 158 | 6.0 | 13.0 | 0.00 | 0.00 | 0.00 | 67 | 1018.3 |
| 20260504040526 | 68 | 157 | 6.0 | 13.0 | 0.00 | 0.00 | 0.00 | 66 | 1018.2 |
| 20260504040003 | 68 | 157 | 6.0 | 12.0 | 0.00 | 0.00 | 0.00 | 66 | 1018.3 |
| 20260504035503 | 68 | 154 | 6.0 | 10.0 | 0.00 | 0.00 | 0.00 | 65 | 1018.5 |
| 20260504035004 | 68 | 152 | 5.0 | 10.0 | 0.00 | 0.00 | 0.00 | 65 | 1018.5 |
| 20260504034504 | 68 | 150 | 5.0 | 9.0 | 0.00 | 0.00 | 0.00 | 65 | 1018.6 |
| 20260504034003 | 68 | 150 | 5.0 | 10.0 | 0.00 | 0.00 | 0.00 | 64 | 1018.4 |
| 20260504033504 | 68 | 154 | 5.0 | 10.0 | 0.00 | 0.00 | 0.00 | 64 | 1018.3 |
| 20260504033025 | 68 | 153 | 5.0 | 9.0 | 0.00 | 0.00 | 0.00 | 63 | 1018.3 |
| 20260504032503 | 68 | 153 | 6.0 | 9.0 | 0.00 | 0.00 | 0.00 | 63 | 1018.3 |
| 20260504032004 | 69 | 155 | 6.0 | 11.0 | 0.00 | 0.00 | 0.00 | 62 | 1018.2 |
| 20260504031525 | 69 | 153 | 5.0 | 11.0 | 0.00 | 0.00 | 0.00 | 62 | 1018.2 |
| 20260504031004 | 69 | 146 | 5.0 | 10.0 | 0.00 | 0.00 | 0.00 | 61 | 1018.1 |
| 20260504030503 | 69 | 145 | 5.0 | 10.0 | 0.00 | 0.00 | 0.00 | 61 | 1018.1 |
| 20260504030003 | 69 | 150 | 5.0 | 8.0 | 0.00 | 0.00 | 0.00 | 61 | 1018.1 |
| 20260504025503 | 69 | 152 | 5.0 | 9.0 | 0.00 | 0.00 | 0.00 | 61 | 1018.2 |
| 20260504025003 | 70 | 152 | 5.0 | 11.0 | 0.00 | 0.00 | 0.00 | 61 | 1018.2 |
| 20260504024504 | 70 | 150 | 5.0 | 11.0 | 0.00 | 0.00 | 0.00 | 61 | 1018.1 |
| 20260504024003 | 70 | 146 | 5.0 | 8.0 | 0.00 | 0.00 | 0.00 | 61 | 1018.1 |
| 20260504023503 | 70 | 145 | 4.0 | 8.0 | 0.00 | 0.00 | 0.00 | 61 | 1018.1 |
| 20260504023003 | 70 | 146 | 4.0 | 8.0 | 0.00 | 0.00 | 0.00 | 60 | 1018.2 |
| 20260504022503 | 70 | 143 | 4.0 | 9.0 | 0.00 | 0.00 | 0.00 | 60 | 1018.1 |
| 20260504022003 | 70 | 142 | 4.0 | 9.0 | 0.00 | 0.00 | 0.00 | 59 | 1017.9 |
| 20260504021505 | 70 | 141 | 4.0 | 8.0 | 0.00 | 0.00 | 0.00 | 60 | 1017.8 |
| 20260504021004 | 70 | 144 | 4.0 | 7.0 | 0.00 | 0.00 | 0.00 | 59 | 1017.9 |
| 20260504020503 | 70 | 143 | 4.0 | 8.0 | 0.00 | 0.00 | 0.00 | 58 | 1017.9 |
| 20260504020004 | 70 | 139 | 3.0 | 8.0 | 0.00 | 0.00 | 0.00 | 58 | 1017.7 |
| 20260504015504 | 70 | 137 | 3.0 | 7.0 | 0.00 | 0.00 | 0.00 | 57 | 1017.6 |
| 20260504015003 | 70 | 138 | 2.0 | 5.0 | 0.00 | 0.00 | 0.00 | 56 | 1017.6 |
| 20260504014503 | 70 | 139 | 2.0 | 3.0 | 0.00 | 0.00 | 0.00 | 56 | 1017.5 |
| 20260504014004 | 71 | 145 | 2.0 | 4.0 | 0.00 | 0.00 | 0.00 | 56 | 1017.5 |
| 20260504013503 | 71 | 154 | 1.0 | 4.0 | 0.00 | 0.00 | 0.00 | 56 | 1017.4 |
| 20260504013004 | 71 | 158 | 0.0 | 3.0 | 0.00 | 0.00 | 0.00 | 55 | 1017.3 |
| 20260504012505 | 72 | 158 | 0.0 | 2.0 | 0.00 | 0.00 | 0.00 | 54 | 1017.3 |
| 20260504012004 | 72 | 158 | 1.0 | 2.0 | 0.00 | 0.00 | 0.00 | 52 | 1017.2 |
| 20260504011505 | 73 | 158 | 1.0 | 2.0 | 0.00 | 0.00 | 0.00 | 51 | 1017.0 |
| 20260504011004 | 73 | 158 | 1.0 | 2.0 | 0.00 | 0.00 | 0.00 | 51 | 1017.0 |
| 20260504010504 | 73 | 158 | 0.0 | 1.0 | 0.00 | 0.00 | 0.00 | 50 | 1017.1 |
| 20260504010005 | 73 | 158 | 0.0 | 1.0 | 0.00 | 0.00 | 0.00 | 49 | 1017.2 |
| 20260504005504 | 74 | 158 | 0.0 | 2.0 | 0.00 | 0.00 | 0.00 | 49 | 1017.2 |
| 20260504005005 | 74 | 153 | 2.0 | 4.0 | 0.00 | 0.00 | 0.00 | 49 | 1017.1 |
| 20260504004504 | 75 | 150 | 2.0 | 6.0 | 0.00 | 0.00 | 0.00 | 47 | 1017.1 |
| 20260504004005 | 75 | 154 | 2.0 | 6.0 | 0.00 | 0.00 | 0.00 | 47 | 1017.2 |
| 20260504003504 | 75 | 161 | 2.0 | 5.0 | 0.00 | 0.00 | 0.00 | 46 | 1017.2 |
| 20260504003026 | 76 | 171 | 3.0 | 6.0 | 0.00 | 0.00 | 0.00 | 46 | 1017.3 |
| 20260504002504 | 76 | 180 | 3.0 | 6.0 | 0.00 | 0.00 | 0.00 | 46 | 1017.3 |
| 20260504002004 | 76 | 185 | 4.0 | 9.0 | 0.00 | 0.00 | 0.00 | 45 | 1017.5 |
| 20260504001527 | 76 | 188 | 5.0 | 9.0 | 0.00 | 0.00 | 0.00 | 44 | 1017.6 |
| 20260504001005 | 77 | 185 | 5.0 | 9.0 | 0.00 | 0.00 | 0.00 | 45 | 1017.5 |
| 20260504000505 | 77 | 168 | 4.0 | 8.0 | 0.00 | 0.00 | 0.00 | 43 | 1017.7 |
| 20260504000004 | 78 | 161 | 4.0 | 6.0 | 0.00 | 0.00 | 0.00 | 42 | 1017.7 |
| 20260503235526 | 78 | 178 | 4.0 | 7.0 | 0.00 | 0.00 | 0.00 | 43 | 1017.8 |
| 20260503235004 | 78 | 180 | 5.0 | 11.0 | 0.00 | 0.00 | 0.00 | 42 | 1017.8 |
| 20260503234504 | 78 | 174 | 5.0 | 11.0 | 0.00 | 0.00 | 0.00 | 41 | 1017.8 |
| 20260503234004 | 78 | 168 | 4.0 | 9.0 | 0.00 | 0.00 | 0.00 | 43 | 1017.8 |
| 20260503233504 | 78 | 171 | 4.0 | 10.0 | 0.00 | 0.00 | 0.00 | 42 | 1017.7 |
| 20260503233004 | 78 | 168 | 5.0 | 10.0 | 0.00 | 0.00 | 0.00 | 43 | 1017.8 |
| 20260503232504 | 78 | 160 | 5.0 | 9.0 | 0.00 | 0.00 | 0.00 | 42 | 1017.8 |
| 20260503232005 | 78 | 178 | 5.0 | 9.0 | 0.00 | 0.00 | 0.00 | 42 | 1017.9 |
| 20260503231526 | 78 | 177 | 5.0 | 11.0 | 0.00 | 0.00 | 0.00 | 40 | 1017.9 |
| 20260503231026 | 78 | 156 | 5.0 | 11.0 | 0.00 | 0.00 | 0.00 | 41 | 1017.9 |
| 20260503230505 | 78 | 139 | 5.0 | 8.0 | 0.00 | 0.00 | 0.00 | 42 | 1017.7 |
| 20260503230004 | 78 | 135 | 5.0 | 10.0 | 0.00 | 0.00 | 0.00 | 42 | 1017.9 |
| 20260503225504 | 78 | 141 | 5.0 | 10.0 | 0.00 | 0.00 | 0.00 | 44 | 1017.9 |
| 20260503225005 | 78 | 164 | 5.0 | 10.0 | 0.00 | 0.00 | 0.00 | 43 | 1017.9 |
| 20260503224504 | 78 | 173 | 4.0 | 8.0 | 0.00 | 0.00 | 0.00 | 44 | 1017.8 |
| 20260503224004 | 78 | 160 | 5.0 | 9.0 | 0.00 | 0.00 | 0.00 | 42 | 1018.0 |
| 20260503223504 | 78 | 158 | 5.0 | 9.0 | 0.00 | 0.00 | 0.00 | 42 | 1018.1 |
| 20260503223004 | 79 | 154 | 4.0 | 9.0 | 0.00 | 0.00 | 0.00 | 47 | 1018.1 |
| 20260503222505 | 78 | 168 | 4.0 | 9.0 | 0.00 | 0.00 | 0.00 | 44 | 1018.1 |
| 20260503222004 | 78 | 178 | 5.0 | 9.0 | 0.00 | 0.00 | 0.00 | 41 | 1018.2 |
| 20260503221505 | 78 | 163 | 5.0 | 9.0 | 0.00 | 0.00 | 0.00 | 42 | 1018.3 |
| 20260503221004 | 78 | 157 | 5.0 | 8.0 | 0.00 | 0.00 | 0.00 | 42 | 1018.5 |
| 20260503220505 | 78 | 169 | 5.0 | 9.0 | 0.00 | 0.00 | 0.00 | 44 | 1018.6 |
| 20260503220005 | 78 | 180 | 6.0 | 11.0 | 0.00 | 0.00 | 0.00 | 41 | 1018.6 |
| 20260503215505 | 79 | 193 | 6.0 | 11.0 | 0.00 | 0.00 | 0.00 | 43 | 1018.8 |
| 20260503215025 | 79 | 191 | 6.0 | 14.0 | 0.00 | 0.00 | 0.00 | 42 | 1018.9 |
| 20260503214504 | 78 | 168 | 6.0 | 14.0 | 0.00 | 0.00 | 0.00 | 43 | 1019.1 |
| 20260503214005 | 78 | 137 | 4.0 | 9.0 | 0.00 | 0.00 | 0.00 | 42 | 1019.0 |
| 20260503213504 | 78 | 133 | 3.0 | 8.0 | 0.00 | 0.00 | 0.00 | 40 | 1018.9 |
| 20260503213004 | 78 | 139 | 4.0 | 11.0 | 0.00 | 0.00 | 0.00 | 41 | 1018.9 |
| 20260503212504 | 78 | 161 | 5.0 | 11.0 | 0.00 | 0.00 | 0.00 | 39 | 1019.1 |
| 20260503212004 | 78 | 184 | 6.0 | 12.0 | 0.00 | 0.00 | 0.00 | 41 | 1019.3 |
| 20260503211504 | 78 | 196 | 7.0 | 14.0 | 0.00 | 0.00 | 0.00 | 42 | 1019.5 |
| 20260503211005 | 78 | 200 | 7.0 | 14.0 | 0.00 | 0.00 | 0.00 | 41 | 1019.6 |
| 20260503210505 | 78 | 192 | 6.0 | 14.0 | 0.00 | 0.00 | 0.00 | 42 | 1019.7 |
| 20260503210025 | 78 | 195 | 5.0 | 10.0 | 0.00 | 0.00 | 0.00 | 41 | 1019.7 |
| 20260503205504 | 78 | 195 | 6.0 | 10.0 | 0.00 | 0.00 | 0.00 | 42 | 1019.9 |
| 20260503205026 | 78 | 183 | 7.0 | 13.0 | 0.00 | 0.00 | 0.00 | 42 | 1019.9 |
| 20260503204526 | 78 | 183 | 7.0 | 13.0 | 0.00 | 0.00 | 0.00 | 42 | 1020.1 |
| 20260503204004 | 78 | 181 | 6.0 | 10.0 | 0.00 | 0.00 | 0.00 | 40 | 1020.1 |
| 20260503203504 | 79 | 177 | 4.0 | 10.0 | 0.00 | 0.00 | 0.00 | 42 | 1020.2 |
| 20260503203004 | 78 | 177 | 4.0 | 10.0 | 0.00 | 0.00 | 0.00 | 37 | 1020.1 |
| 20260503202505 | 78 | 168 | 6.0 | 10.0 | 0.00 | 0.00 | 0.00 | 37 | 1020.4 |
| 20260503202005 | 78 | 155 | 5.0 | 10.0 | 0.00 | 0.00 | 0.00 | 38 | 1020.6 |
| 20260503201504 | 78 | 142 | 5.0 | 10.0 | 0.00 | 0.00 | 0.00 | 36 | 1020.5 |
| 20260503201004 | 78 | 157 | 5.0 | 10.0 | 0.00 | 0.00 | 0.00 | 38 | 1020.4 |
| 20260503200526 | 78 | 169 | 4.0 | 10.0 | 0.00 | 0.00 | 0.00 | 38 | 1020.6 |
| 20260503200004 | 78 | 181 | 6.0 | 15.0 | 0.00 | 0.00 | 0.00 | 38 | 1020.8 |
| 20260503195505 | 78 | 176 | 6.0 | 15.0 | 0.00 | 0.00 | 0.00 | 40 | 1020.8 |
| 20260503195005 | 78 | 158 | 5.0 | 10.0 | 0.00 | 0.00 | 0.00 | 44 | 1020.8 |
| 20260503194525 | 78 | 156 | 4.0 | 10.0 | 0.00 | 0.00 | 0.00 | 44 | 1020.8 |
| 20260503194004 | 78 | 166 | 5.0 | 15.0 | 0.00 | 0.00 | 0.00 | 43 | 1020.9 |
| 20260503193505 | 78 | 156 | 5.0 | 15.0 | 0.00 | 0.00 | 0.00 | 40 | 1021.1 |
| 20260503193026 | 77 | 151 | 5.0 | 10.0 | 0.00 | 0.00 | 0.00 | 44 | 1021.1 |
| 20260503192525 | 78 | 150 | 4.0 | 9.0 | 0.00 | 0.00 | 0.00 | 45 | 1021.2 |
| 20260503192025 | 78 | 133 | 4.0 | 10.0 | 0.00 | 0.00 | 0.00 | 47 | 1021.2 |
| 20260503191505 | 77 | 136 | 5.0 | 12.0 | 0.00 | 0.00 | 0.00 | 40 | 1021.1 |
| 20260503191005 | 77 | 166 | 6.0 | 12.0 | 0.00 | 0.00 | 0.00 | 41 | 1021.3 |
| 20260503190504 | 77 | 183 | 5.0 | 11.0 | 0.00 | 0.00 | 0.00 | 46 | 1021.3 |
| 20260503190025 | 76 | 176 | 4.0 | 12.0 | 0.00 | 0.00 | 0.00 | 46 | 1021.4 |
| 20260503185504 | 76 | 181 | 6.0 | 18.0 | 0.00 | 0.00 | 0.00 | 44 | 1021.8 |
| 20260503185004 | 77 | 179 | 5.0 | 18.0 | 0.00 | 0.00 | 0.00 | 45 | 1021.8 |
| 20260503184504 | 77 | 168 | 4.0 | 12.0 | 0.00 | 0.00 | 0.00 | 48 | 1021.8 |
| 20260503184026 | 77 | 185 | 5.0 | 12.0 | 0.00 | 0.00 | 0.00 | 46 | 1021.9 |
| 20260503183505 | 76 | 205 | 4.0 | 11.0 | 0.00 | 0.00 | 0.00 | 46 | 1021.9 |
| 20260503183025 | 76 | 190 | 5.0 | 11.0 | 0.00 | 0.00 | 0.00 | 44 | 1021.9 |
| 20260503182505 | 76 | 165 | 5.0 | 11.0 | 0.00 | 0.00 | 0.00 | 45 | 1022.1 |
| 20260503182025 | 76 | 149 | 5.0 | 11.0 | 0.00 | 0.00 | 0.00 | 47 | 1022.1 |
| 20260503181506 | 76 | 167 | 5.0 | 11.0 | 0.00 | 0.00 | 0.00 | 46 | 1022.3 |
| 20260503181025 | 76 | 182 | 5.0 | 10.0 | 0.00 | 0.00 | 0.00 | 49 | 1022.5 |
| 20260503180504 | 76 | 192 | 5.0 | 11.0 | 0.00 | 0.00 | 0.00 | 46 | 1022.6 |
| 20260503180026 | 76 | 196 | 6.0 | 11.0 | 0.00 | 0.00 | 0.00 | 48 | 1022.7 |
| 20260503175505 | 75 | 194 | 6.0 | 13.0 | 0.00 | 0.00 | 0.00 | 47 | 1022.7 |
| 20260503175004 | 75 | 194 | 4.0 | 13.0 | 0.00 | 0.00 | 0.00 | 51 | 1022.9 |
| 20260503174504 | 75 | 187 | 4.0 | 11.0 | 0.00 | 0.00 | 0.00 | 50 | 1022.9 |
| 20260503174005 | 75 | 179 | 4.0 | 10.0 | 0.00 | 0.00 | 0.00 | 45 | 1023.0 |
| 20260503173504 | 75 | 170 | 5.0 | 13.0 | 0.00 | 0.00 | 0.00 | 49 | 1023.1 |
| 20260503173004 | 75 | 181 | 6.0 | 13.0 | 0.00 | 0.00 | 0.00 | 50 | 1023.2 |
| 20260503172504 | 75 | 180 | 5.0 | 11.0 | 0.00 | 0.00 | 0.00 | 47 | 1023.1 |
| 20260503172004 | 75 | 175 | 5.0 | 12.0 | 0.00 | 0.00 | 0.00 | 48 | 1023.2 |
| 20260503171504 | 75 | 164 | 4.0 | 12.0 | 0.00 | 0.00 | 0.00 | 47 | 1023.4 |
| 20260503171004 | 75 | 167 | 3.0 | 7.0 | 0.00 | 0.00 | 0.00 | 48 | 1023.4 |
| 20260503170504 | 74 | 182 | 3.0 | 11.0 | 0.00 | 0.00 | 0.00 | 50 | 1023.4 |
| 20260503151004 | 70 | 201 | 1.0 | 4.0 | 0.00 | 0.00 | 0.00 | 64 | 1024.1 |
| 20260503150525 | 70 | 193 | 2.0 | 4.0 | 0.00 | 0.00 | 0.00 | 65 | 1024.0 |
| 20260503131004 | 56 | 0 | 0.0 | 0.0 | 0.00 | 0.00 | 0.00 | 92 | 1023.4 |
| 20260503130504 | 56 | 0 | 0.0 | 0.0 | 0.00 | 0.00 | 0.00 | 91 | 1023.3 |
| 20260503110504 | 52 | 0 | 0.0 | 0.0 | 0.00 | 0.00 | 0.00 | 91 | 1022.1 |
| 20260503090504 | 54 | 0 | 0.0 | 0.0 | 0.00 | 0.00 | 0.00 | 89 | 1021.7 |
| 20260503081504 | 55 | 0 | 0.0 | 0.0 | 0.00 | 0.00 | 0.00 | 89 | 1021.9 |
| 20260503081004 | 55 | 0 | 0.0 | 0.0 | 0.00 | 0.00 | 0.00 | 89 | 1021.9 |
| 20260503080503 | 55 | 0 | 0.0 | 0.0 | 0.00 | 0.00 | 0.00 | 88 | 1021.8 |
| 20260503072525 | 56 | 0 | 0.0 | 0.0 | 0.00 | 0.00 | 0.00 | 87 | 1022.3 |
| 20260503072004 | 56 | 0 | 0.0 | 0.0 | 0.00 | 0.00 | 0.00 | 87 | 1022.4 |
| 20260503071504 | 56 | 0 | 0.0 | 0.0 | 0.00 | 0.00 | 0.00 | 87 | 1022.3 |
| 20260503071004 | 56 | 0 | 0.0 | 0.0 | 0.00 | 0.00 | 0.00 | 87 | 1022.3 |
| 20260503070525 | 56 | 0 | 0.0 | 0.0 | 0.00 | 0.00 | 0.00 | 86 | 1022.4 |